Thomson, GA

11:45 PM EDT on June 24, 2017 (GMT -0400)
Thomson-McDuffie County

Weather History for KHQU - December, 2012

Change the Weather History Date:

Monday, December 17, 2012

  Actual Average (KDNL) Record (KDNL)
Temperature  
Mean Temperature 56 °F -  
Max Temperature 58 °F 55 °F 73 °F (2001)
Min Temperature 53 °F 36 °F 28 °F (2000)
Degree Days  
Heating Degree Days 10    
Growing Degree Days 6 (Base 50)    
Moisture  
Dew Point 56 °F    
Average Humidity 100    
Maximum Humidity 100    
Minimum Humidity 100    
Precipitation  
Precipitation 0.00 in - - ()
Sea Level Pressure  
Sea Level Pressure 29.87 in    
Wind  
Wind Speed 3 mph (SSW)    
Max Wind Speed 12 mph    
Max Gust Speed 22 mph    
Visibility 8 miles    
Events      
Averages and records for this station are not official NWS values.
T = Trace of Precipitation, MM = Missing Value Source: NWS Daily Summary

Daily Weather History Graph

Daily Weather History Graph

Search for Another Location

Airport or City:

Trip Planner

Search our weather history database for the weather conditions in past years. The results will help you decide how hot, cold, wet, or windy it might be!

Date:

Astronomy

Dec. 17, 2012 Rise Set
Actual Time 7:28 AM EST 5:24 PM EST
Civil Twilight 7:00 AM EST 5:52 PM EST
Nautical Twilight 6:29 AM EST 6:23 PM EST
Astronomical Twilight 5:59 AM EST 6:53 PM EST
Moon 10:48 AM EST (12/17) 10:31 PM EST (12/17)
Length of Visible Light 10h 51m
Length of Day
9h 56m
Waxing Crescent, 24% of the Moon is Illuminated
Dec 17
Waxing Crescent
Dec 20
First Quarter
Dec 28
Full
Jan 4
Last Quarter
Jan 11
New

Hourly Weather History & Observations

Time (EST) Temp. Dew Point Humidity Pressure Visibility Wind Dir Wind Speed Gust Speed Precip Events Conditions
12:15 AM 55.4 °F 55.4 °F 100% 29.99 in 4.0 mi NW 6.9 mph - N/A   Overcast
12:35 AM 55.0 °F 55.0 °F 100% 29.98 in 3.0 mi North 3.5 mph - N/A   Overcast
12:55 AM 54.9 °F 54.9 °F 100% 29.98 in 7.0 mi NW 4.6 mph - N/A   Overcast
1:15 AM 54.9 °F 54.9 °F 100% 29.98 in 10.0 mi NNW 3.5 mph - N/A   Overcast
1:35 AM 54.7 °F 54.7 °F 100% 29.97 in 10.0 mi NNW 4.6 mph - N/A   Overcast
1:55 AM 54.5 °F 54.5 °F 100% 29.95 in 10.0 mi Calm Calm - N/A   Overcast
2:15 AM 54.5 °F 54.5 °F 100% 29.94 in 10.0 mi ESE 4.6 mph - N/A   Overcast
2:35 AM 54.1 °F 54.1 °F 100% 29.93 in 10.0 mi Calm Calm - N/A   Overcast
2:55 AM 54.5 °F 54.5 °F 100% 29.94 in 10.0 mi South 4.6 mph - N/A   Overcast
3:15 AM 54.5 °F 54.5 °F 100% 29.91 in 10.0 mi SE 3.5 mph - N/A   Scattered Clouds
3:35 AM 54.5 °F 54.5 °F 100% 29.87 in 10.0 mi ESE 4.6 mph 16.1 mph N/A   Scattered Clouds
3:55 AM 54.9 °F 54.9 °F 100% 29.88 in 10.0 mi SSE 3.5 mph - N/A   Scattered Clouds
4:15 AM 54.9 °F 54.9 °F 100% 29.90 in 10.0 mi Calm Calm - N/A   Mostly Cloudy
4:35 AM 54.5 °F 54.5 °F 100% 29.89 in 10.0 mi Calm Calm - N/A   Mostly Cloudy
4:55 AM 54.1 °F 54.1 °F 100% 29.86 in 5.0 mi SE 4.6 mph - N/A   Scattered Clouds
5:15 AM 54.5 °F 54.5 °F 100% 29.87 in 10.0 mi West 3.5 mph - N/A   Mostly Cloudy
5:35 AM 54.5 °F 54.5 °F 100% 29.90 in 10.0 mi Calm Calm - N/A   Overcast
5:55 AM 53.8 °F 53.8 °F 100% 29.86 in 10.0 mi SE 3.5 mph - N/A   Overcast
6:15 AM 54.0 °F 54.0 °F 100% 29.89 in 10.0 mi Calm Calm - N/A   Overcast
6:35 AM 54.3 °F 54.3 °F 100% 29.90 in 10.0 mi Calm Calm - N/A   Overcast
6:55 AM 53.8 °F 53.8 °F 100% 29.92 in 10.0 mi Calm Calm - N/A   Mostly Cloudy
7:15 AM 53.6 °F 53.6 °F 100% 29.92 in 5.0 mi Calm Calm - N/A   Scattered Clouds
7:35 AM 53.4 °F 53.4 °F 100% 29.92 in 4.0 mi Calm Calm - N/A   Overcast
7:55 AM 53.1 °F 53.1 °F 100% 29.92 in 1.0 mi Calm Calm - N/A   Overcast
8:15 AM 53.2 °F 53.2 °F 100% 29.92 in 1.2 mi Calm Calm - N/A   Overcast
8:35 AM 54.0 °F 54.0 °F 100% 29.91 in 10.0 mi Calm Calm - N/A   Overcast
8:55 AM 54.1 °F 54.1 °F 100% 29.92 in 7.0 mi NNW 6.9 mph - N/A   Overcast
9:15 AM 54.5 °F 54.5 °F 100% 29.93 in 10.0 mi Calm Calm - N/A   Mostly Cloudy
9:35 AM 54.7 °F 54.7 °F 100% 29.91 in 10.0 mi Calm Calm - N/A   Mostly Cloudy
9:55 AM 54.9 °F 54.9 °F 100% 29.91 in 10.0 mi Calm Calm - N/A   Overcast
10:15 AM 55.4 °F 55.4 °F 100% 29.92 in 10.0 mi Calm Calm - N/A   Overcast
10:35 AM 55.4 °F 55.4 °F 100% 29.93 in 10.0 mi Calm Calm - N/A   Overcast
10:55 AM 55.8 °F 55.8 °F 100% 29.93 in 10.0 mi Calm Calm - N/A   Overcast
11:15 AM 56.3 °F 56.3 °F 100% 29.91 in 7.0 mi Calm Calm - N/A   Overcast
11:35 AM 56.3 °F 56.3 °F 100% 29.91 in 10.0 mi Calm Calm - N/A   Overcast
11:55 AM 56.5 °F 56.5 °F 100% 29.91 in 10.0 mi Calm Calm - N/A   Overcast
12:15 PM 56.3 °F 56.3 °F 100% 29.90 in 7.0 mi South 3.5 mph - N/A   Overcast
12:35 PM 56.7 °F 56.7 °F 100% 29.89 in 7.0 mi Calm Calm - N/A   Overcast
12:55 PM 56.8 °F 56.8 °F 100% 29.87 in 5.0 mi SSE 4.6 mph - N/A   Overcast
1:15 PM 56.8 °F 56.8 °F 100% 29.87 in 7.0 mi South 8.1 mph - N/A   Overcast
1:35 PM 56.7 °F 56.7 °F 100% 29.86 in 5.0 mi South 5.8 mph - N/A   Overcast
1:55 PM 56.8 °F 56.8 °F 100% 29.81 in 7.0 mi SSE 9.2 mph - N/A   Overcast
2:15 PM 57.2 °F 57.2 °F 100% 29.77 in 5.0 mi SSE 11.5 mph 21.9 mph N/A   Overcast
2:35 PM 57.2 °F 57.2 °F 100% 29.79 in 10.0 mi SW 3.5 mph - N/A   Overcast
2:55 PM 57.4 °F 57.4 °F 100% 29.80 in 10.0 mi West 5.8 mph - N/A   Overcast
3:15 PM 57.2 °F 57.2 °F 100% 29.78 in 10.0 mi Calm Calm - N/A   Mostly Cloudy
3:35 PM 57.2 °F 57.2 °F 100% 29.79 in 10.0 mi Calm Calm - N/A   Overcast
3:55 PM 56.8 °F 56.8 °F 100% 29.74 in 10.0 mi East 4.6 mph - N/A   Overcast
4:15 PM 57.7 °F 57.7 °F 100% 29.77 in 10.0 mi South 3.5 mph - N/A   Overcast
4:35 PM 57.7 °F 57.7 °F 100% 29.78 in 10.0 mi West 6.9 mph - N/A   Overcast
4:55 PM 57.4 °F 57.4 °F 100% 29.76 in 10.0 mi Calm Calm - N/A   Overcast
7:35 PM 58.1 °F 58.1 °F 100% 29.80 in 5.0 mi SW 4.6 mph - N/A   Overcast
7:55 PM 58.1 °F 58.1 °F 100% 29.80 in 4.0 mi SSW 5.8 mph - N/A   Overcast
8:15 PM 58.1 °F 58.1 °F 100% 29.80 in 4.0 mi SSW 4.6 mph - N/A   Overcast
8:35 PM 58.1 °F 58.1 °F 100% 29.80 in 10.0 mi SW 4.6 mph - N/A   Overcast
8:55 PM 58.3 °F 58.3 °F 100% 29.81 in 10.0 mi SW 6.9 mph - N/A   Overcast
9:15 PM 58.3 °F 58.3 °F 100% 29.79 in 10.0 mi SSW 4.6 mph - N/A   Overcast
9:35 PM 58.3 °F 58.3 °F 100% 29.79 in 10.0 mi SW 4.6 mph - N/A   Overcast
9:55 PM 58.3 °F 58.3 °F 100% 29.79 in 10.0 mi SSW 4.6 mph - N/A   Overcast
10:15 PM 58.1 °F 58.1 °F 100% 29.79 in 10.0 mi SW 3.5 mph - N/A   Mostly Cloudy
10:35 PM 58.1 °F 58.1 °F 100% 29.80 in 10.0 mi SW 5.8 mph - N/A   Mostly Cloudy
10:55 PM 58.1 °F 58.1 °F 100% 29.81 in 10.0 mi WSW 4.6 mph - N/A   Overcast
11:15 PM 58.1 °F 58.1 °F 100% 29.81 in 10.0 mi SW 4.6 mph - N/A   Mostly Cloudy
11:35 PM 58.1 °F 58.1 °F 100% 29.82 in 10.0 mi WSW 9.2 mph - N/A   Overcast
11:55 PM 57.7 °F 57.7 °F 100% 29.81 in 10.0 mi WSW 6.9 mph - N/A   Overcast